Location: Fesselsdorf
(50.0180°N, 11.2448°E)
Time: 00:01:13
(UTC+00:00)

Daily predictions for brighter satellites

Satellite Brightness Start Highest point End
(mag) Time Altitude Azimuth Time Altitude Azimuth Time Altitude Azimuth
SL-16 R/B 3.4 00:12:20 46° NNE 00:12:20 46° NNE 00:17:05 10° N
Cosmos 1943 Rocket 3.9 00:17:17 27° NNW 00:17:17 27° NNW 00:20:39 10° NNE
CZ-2D R/B 3.8 00:17:45 10° NNE 00:20:45 28° NE 00:20:45 28° NE
ATLAS 5 CENTAUR R/B 4.3 00:26:24 14° ENE 00:26:24 14° ENE 00:27:15 10° NE
Cosmos 2297 Rocket 3.5 00:24:49 10° NNW 00:28:49 37° NNE 00:28:49 37° NNE
Resurs 1-4 Rocket 3.5 00:31:41 10° NNE 00:34:54 34° NE 00:34:54 34° NE
Cosmos 2369 Rocket 3.7 00:41:05 29° NNW 00:41:05 29° NNW 00:44:51 10° NNE
Gbstr 26 Del rocket 4.5 00:44:54 81° NNE 00:44:54 81° NNE 00:52:40 10° E
CZ-4C R/B 4.0 00:47:10 25° NW 00:48:38 28° NNW 00:54:20 10° NE
USA 267 4.3 00:50:01 10° ENE 00:54:57 34° ESE 00:54:57 34° ESE
SL-8 Rocket 4.3 01:07:05 10° N 01:12:12 61° NNW 01:12:12 61° NNW
Cosmos 2218 Rocket 4.1 01:18:19 10° N 01:24:06 73° NNW 01:24:06 73° NNW
Cosmos 2366 rocket 4.0 01:20:56 10° N 01:26:35 73° NNW 01:26:35 73° NNW
Cosmos 2227 Rocket 3.1 01:21:45 10° NNW 01:25:13 39° NNW 01:25:13 39° NNW
Cosmos 1992 Rocket 4.5 01:30:28 57° NE 01:30:28 57° NE 01:34:47 10° NNE
Cosmos 1656 4.1 01:30:38 53° E 01:30:38 53° E 01:35:35 10° NE
Lacrosse 5 3.6 01:32:48 25° ESE 01:32:48 25° ESE 01:36:06 10° ENE
USA 234 3.2 01:26:21 10° ESE 01:32:53 80° NNE 01:37:43 20° WNW
ADEOS II 2.3 01:33:31 10° NNE 01:38:28 66° E 01:38:28 66° E
CZ-4B R/B 3.7 01:36:16 10° NNE 01:40:47 67° NE 01:40:47 67° NE
SL-08 R/B 3.7 01:47:13 59° NE 01:47:13 59° NE 01:51:19 10° N
Cosmos 2181 Rocket 4.0 01:47:57 63° WNW 01:47:57 63° WNW 01:53:47 10° N
SL-08 R/B 4.4 01:42:02 10° N 01:48:28 89° W 01:49:27 67° S
Cosmos 1633 Rocket 4.1 01:46:03 10° N 01:48:58 40° N 01:48:58 40° N
IDEFIX/ARIANE 42P 3.8 01:46:47 10° NNE 01:51:39 36° E 01:53:41 27° SE
SL-16 R/B 3.8 01:57:26 25° NW 01:57:26 25° NW 02:00:29 10° NNW
IRS-1C 4.4 01:49:55 10° NNE 01:55:14 62° ESE 01:55:57 56° SE
Cosmos 1241 Rocket 4.4 01:54:48 67° W 01:55:19 71° NW 02:01:47 10° NE
Cosmos 1606 4.3 01:59:13 32° NNE 01:59:13 32° NNE 02:01:20 10° NNE
ATLAS CENTAUR R/B 4.5 01:42:18 10° W 01:59:46 57° NNW 02:06:05 10° ENE
Cosmos 1151 Rocket 3.6 02:00:38 54° E 02:00:38 54° E 02:04:38 10° NNE
ARIANE 5 R/B 3.0 01:55:48 10° NNE 02:00:49 53° E 02:01:50 45° SE
IRS-1D 3.5 01:56:31 10° NNE 02:01:47 74° WNW 02:01:47 74° WNW
CZ-2D R/B 3.0 01:57:50 10° N 02:02:04 37° NW 02:02:04 37° NW
ATLAS 5 CENTAUR R/B 2.5 02:07:56 39° NNW 02:07:56 39° NNW 02:12:13 10° NE
NPP 4.3 02:03:51 10° N 02:08:28 40° NW 02:08:28 40° NW
CBERS-1 4.0 02:09:01 10° N 02:13:59 62° WNW 02:13:59 62° WNW
Cosmos 2297 Rocket 4.0 02:09:04 10° NW 02:10:32 18° NW 02:10:32 18° NW
Resurs 1-4 Rocket 3.2 02:11:53 10° N 02:15:58 30° NW 02:15:58 30° NW
Cosmos 1933 3.6 02:18:15 64° N 02:18:15 64° N 02:21:45 10° N
Cosmos 2082 3.6 02:13:03 10° NNW 02:18:43 69° WSW 02:20:23 46° S
USA 305 3.7 02:22:42 41° SE 02:22:42 41° SE 02:26:33 10° ENE
Meteor 1-26 Rocket 4.4 02:24:04 32° S 02:26:32 67° E 02:31:54 10° NNE
USA 306 3.5 02:26:37 44° SE 02:26:37 44° SE 02:30:38 10° ENE
X-37B 3.0 02:29:08 17° ESE 02:29:08 17° ESE 02:30:12 10° ESE
CZ-2D R/B 3.7 02:23:45 10° NNE 02:27:56 65° ESE 02:28:45 52° SSE
SJ 16-02 3.0 02:24:51 10° N 02:28:53 34° ENE 02:32:54 10° SE
Meteor 1-25 Rocket 4.2 02:24:44 10° NNW 02:30:33 70° W 02:33:00 35° S
Gbstr 26 Del rocket 4.4 02:27:26 25° WNW 02:32:42 86° NNE 02:40:14 10° ESE
Cosmos 389 Rocket 3.6 02:32:18 36° SE 02:33:00 41° E 02:36:23 10° NNE
ASTEX 1 3.5 02:28:58 10° N 02:33:59 78° E 02:36:22 32° S
Cosmos 1697 Rocket 2.6 02:32:34 48° SSW 02:34:14 89° ESE 02:39:53 10° NNE
IRS-P3 4.1 02:29:06 10° N 02:34:24 64° WNW 02:35:28 52° WSW
H-2A R/B 2.6 02:33:06 10° SSE 02:37:23 59° ENE 02:41:48 10° N
CZ-2C R/B 4.2 02:33:25 10° NNE 02:37:58 31° E 02:42:32 10° SSE
Cosmos 1980 Rocket 2.7 02:35:19 26° S 02:38:23 56° ESE 02:43:55 10° NE
CZ-4C R/B 4.4 02:33:49 10° NW 02:39:13 28° NNE 02:45:26 10° ENE
USA 267 3.2 02:32:52 10° ENE 02:39:26 88° NNW 02:42:17 38° WSW
ERS-2 3.8 02:37:29 10° SE 02:40:50 35° ENE 02:44:12 10° N
Iridium 2 4.1 02:39:48 39° SSE 02:40:55 59° E 02:44:39 10° NNE
Cosmos 1602 3.6 02:39:38 10° NNW 02:43:13 70° WNW 02:43:13 70° WNW
ERS-1 4.5 02:39:01 10° N 02:44:08 69° WNW 02:45:42 44° SW
Cosmos 2263 Rocket 2.7 02:39:23 10° NNW 02:45:01 61° ENE 02:50:37 10° SE
SL-8 R/B 3.7 02:46:01 54° WSW 02:46:47 63° SSW 02:51:30 10° ESE
Helios 1B 4.5 02:43:13 13° SSE 02:47:00 89° WSW 02:51:22 10° NNW
Meteor 1-14 Rocket 4.1 02:41:39 10° NNW 02:47:20 86° W 02:52:53 10° S
Cosmos 1818 4.4 02:46:11 32° WNW 02:47:45 39° NW 02:52:53 10° NNE
ATLAS 2AS CENTAUR R/B 4.0 02:44:07 10° NW 02:51:28 44° NNE 02:58:18 10° E
SL-16 R/B 4.3 02:47:25 10° SSE 02:51:48 23° ESE 02:56:11 10° NE
USA 307 3.1 02:52:25 48° SSW 02:53:20 63° SSE 02:57:33 10° ENE
Cosmos 1821 Rocket 4.2 02:47:46 10° NNW 02:53:46 47° W 02:56:29 29° SW
Cosmos 1470 Rocket 3.8 02:50:59 10° NNW 02:55:14 46° W 02:55:25 46° WSW
Cosmos 2227 4.3 02:50:19 10° NNW 02:56:01 76° ENE 03:01:39 10° SE
Cosmos 1812 4.1 02:52:40 10° SSE 02:56:14 38° E 02:59:50 10° NNE
USA 308 3.0 02:55:23 47° SSW 02:56:25 65° SSE 03:00:39 10° ENE
Spot 4 Rocket 3.9 02:51:52 10° NNE 02:57:02 77° WNW 02:59:44 29° SSW
Cosmos 1500 3.4 02:56:26 10° N 03:00:17 70° ENE 03:04:06 10° SSE
Cosmos 972 4.5 02:59:29 21° S 03:02:55 76° ESE 03:07:49 10° NNE
Landsat 5 3.5 03:00:56 10° S 03:05:28 76° WSW 03:09:59 10° NNW
Cosmos 1666 4.2 03:02:30 10° N 03:06:07 38° ENE 03:09:41 10° SE
Meteor 1-5 Rocket 4.2 03:01:27 10° N 03:06:48 78° ENE 03:12:10 10° SSE
Cosmos 1934 Rocket 3.9 03:02:58 10° NNW 03:08:54 58° W 03:14:49 10° S
Cosmos 1238 Rocket 4.0 03:04:34 10° NNW 03:11:08 64° W 03:17:18 10° S
Cosmos 1782 3.0 03:10:11 38° SW 03:11:19 52° WNW 03:15:17 10° N
Cosmos 1898 Rocket 4.1 03:08:33 10° NNW 03:13:46 61° ENE 03:18:59 10° SE
Lacrosse 5 1.8 03:12:00 31° WSW 03:14:28 84° NNW 03:19:35 10° ENE
ADEOS Rocket 3.4 03:09:14 10° SSE 03:16:03 75° ENE 03:22:11 10° NNW
CZ-4B R/B 2.7 03:13:12 10° SE 03:16:10 39° ENE 03:19:14 10° N
USA 234 3.6 03:10:09 10° SSE 03:16:15 42° SW 03:22:25 10° WNW
CZ-2C R/B 2.7 03:13:05 10° N 03:16:48 61° WNW 03:18:32 29° SW
Cosmos 1515 Rocket 3.9 03:15:08 31° SW 03:16:52 47° WNW 03:21:11 10° N
ADEOS II 3.4 03:13:59 10° N 03:18:01 23° WNW 03:19:23 20° W
IRIDIUM 114 4.3 03:14:55 10° N 03:20:11 86° E 03:25:24 10° S
USA 276 2.0 03:21:38 42° WSW 03:22:37 84° S 03:25:51 10° E
USA 32 4.5 03:19:04 10° N 03:24:19 66° E 03:29:32 10° SSE
Cosmos 972 Rocket 4.5 03:24:15 25° WSW 03:26:28 39° WNW 03:31:07 10° N
MSX 3.9 03:21:49 10° N 03:27:31 60° WNW 03:32:40 13° SW
Cosmos 1356 4.0 03:24:33 10° NNW 03:27:43 34° W 03:28:27 30° WSW
Cosmos 44 3.1 03:24:49 20° SSW 03:27:51 81° SE 03:32:34 10° NE
IRIDIUM 103 4.2 03:24:04 10° N 03:29:19 80° W 03:34:32 10° S
Cosmos 1707 Rocket 4.5 03:26:06 10° S 03:30:16 50° E 03:34:29 10° NNE
IDEFIX/ARIANE 42P 3.2 03:26:24 10° N 03:31:16 39° WNW 03:34:28 19° WSW
Cosmos 921 Rocket 2.9 03:27:48 12° SSW 03:31:39 86° ESE 03:35:52 10° NNE
Cosmos 1605 Rocket 4.1 03:25:24 10° NNW 03:31:41 61° W 03:37:58 10° S
Meteor 1-11 Rocket 3.9 03:26:04 10° N 03:31:57 83° ENE 03:37:39 10° SSE
Cosmos 2278 3.8 03:28:10 20° SW 03:32:11 61° WNW 03:37:53 10° NNE
Cosmos 1933 Rocket 4.4 03:28:44 10° NNW 03:32:28 28° W 03:34:17 21° SW
CZ-3B R/B 3.1 03:32:05 20° W 03:34:26 59° N 03:45:44 10° ENE
Cosmos 2228 Rocket 3.1 03:31:12 13° SSW 03:34:59 58° WNW 03:39:22 10° N
SAR-Lupe-4 4.0 03:34:16 10° SSE 03:37:49 66° ENE 03:41:25 10° N
ARIANE 5 R/B 3.6 03:35:25 10° N 03:39:38 26° WNW 03:42:10 18° WSW
Cosmos 2369 4.3 03:36:41 19° WSW 03:40:19 40° NW 03:45:44 10° NNE
Cosmos 1937 Rocket 3.7 03:37:44 10° NNW 03:42:56 76° ENE 03:48:03 10° SSE
CZ-4C R/B 4.1 03:42:39 17° SW 03:44:23 25° W 03:47:24 10° NW
ALOS 3.3 03:42:02 10° NNE 03:46:36 49° E 03:51:07 10° S
Cosmos 1733 Rocket 3.6 03:42:25 10° N 03:46:46 61° ENE 03:51:03 10° SSE
IRIDIUM 106 4.4 03:42:29 10° N 03:47:37 57° W 03:52:42 10° SSW
Meteor 1-27 Rocket 4.2 03:42:29 10° S 03:48:23 72° E 03:54:18 10° NNE
SAR-Lupe-1 4.0 03:46:33 10° SSE 03:50:07 87° ENE 03:53:44 10° NNW
Cosmos 1536 2.9 03:46:27 10° N 03:50:33 86° E 03:54:37 10° S
Cosmos 1869 Rocket 3.9 03:47:28 10° NNW 03:51:35 42° W 03:55:39 10° SSW
ATLAS 5 CENTAUR R/B 3.8 03:50:15 10° NW 03:53:36 19° N 03:57:18 10° NE
Cosmos 1484 Rocket 3.4 03:51:31 10° NNE 03:55:28 61° E 03:59:25 10° S
GENESIS II 4.4 03:51:59 10° SSW 03:56:00 75° SE 04:00:03 10° NE
Meteor 1-4 Rocket 2.4 03:53:47 10° SSW 03:57:12 62° WNW 04:00:43 10° N
USA 305 3.1 03:58:51 14° W 04:02:28 65° NNW 04:06:42 10° ENE
X-37B 1.8 04:01:25 14° WSW 04:03:35 29° S 04:06:25 10° SE
Cosmos 1862 Rocket 4.4 03:59:46 10° S 04:04:03 56° E 04:08:20 10° NNE
Cosmos 1689 Rocket 2.4 04:01:39 10° SSE 04:04:35 69° ENE 04:07:33 10° N
Meteor 1-31 Rocket 3.2 04:02:26 10° NNE 04:06:15 64° ESE 04:10:03 10° S
Cosmos 2100 Rocket 4.0 03:59:56 10° NNW 04:06:21 79° W 04:12:42 10° S
USA 306 3.1 04:02:46 13° W 04:06:33 64° NNW 04:10:47 10° ENE
SJ 16-02 2.1 04:03:33 10° NW 04:07:25 30° WSW 04:11:16 10° SSW
Cosmos 1727 Rocket 4.1 04:01:23 10° SSW 04:07:40 64° WNW 04:13:59 10° N
Cosmos 1763 Rocket 3.6 04:02:23 10° SSW 04:07:43 88° ESE 04:13:04 10° NNE
Cosmos 389 Rocket 4.2 04:06:11 12° W 04:07:56 17° WNW 04:10:18 10° NNW
PSLV R/B 4.0 04:04:46 10° N 04:08:42 39° WNW 04:12:36 10° SW
Cosmos 1802 Rocket 4.1 04:02:29 10° N 04:08:42 85° E 04:14:57 10° S
Cosmos 2360 Rocket 3.5 04:07:06 10° S 04:12:24 43° ESE 04:17:44 10° NE
H-2A R/B 3.5 04:10:45 10° SW 04:13:46 18° W 04:16:49 10° NW
ERS-2 3.4 04:11:37 10° SSW 04:14:29 21° W 04:17:22 10° NW
CZ-2C R/B 2.9 04:11:29 10° N 04:16:17 43° WNW 04:21:09 10° SW
NOSS 3-4 (A) 3.9 04:11:59 10° NW 04:18:55 80° SW 04:26:37 10° SE
Cosmos 1697 Rocket 4.1 04:14:34 10° W 04:18:58 23° NW 04:23:23 10° NNE
NOSS 3-4 (C) 3.9 04:12:05 10° NW 04:19:01 81° SW 04:26:44 10° SE
METEOR-M 4.3 04:15:19 10° NNE 04:20:43 82° ESE 04:26:04 10° SSW
USA 267 3.8 04:15:54 10° ENE 04:22:12 52° N 04:28:30 10° W
Cosmos 1980 Rocket 3.1 04:17:36 10° WSW 04:22:41 33° NW 04:27:46 10° NNE
FENGYUN 3A 3.7 04:18:38 10° NNE 04:24:02 81° WNW 04:29:27 10° SSW
Cosmos 2278 Rocket 4.5 04:19:30 10° NNW 04:24:08 25° NE 04:28:44 10° E
Cosmos 1844 4.2 04:19:27 10° NNW 04:25:03 67° ENE 04:30:34 10° SE
Cosmos 2322 Rocket 2.3 04:21:58 10° SSW 04:27:39 88° WNW 04:33:25 10° NNE
Cosmos 1459 Rocket 4.0 04:22:04 10° NNW 04:28:04 60° W 04:34:00 10° S
